Powrót do katalogu

DELTA 1 DEB

AktywnySSO
NORAD 10712·DEBRIS·🇺🇸 United States

Wystrzelony Jul 29, 1976 z Vandenberg Space Force Base

Loading…

Następne Przeloty (najbliższe 24 godziny)

TLE

ŚwieżeSource: Space-Track

Epoka: Sep 14, 2026, 08:04 UTC

1 10712U 76077AH  26257.33647360  .00000975  00000-0  75082-2 0  9997
2 10712 102.2230  31.4551 0073217 291.8298  95.2627 12.40689052258712

Śledź DELTA 1 DEB w czasie rzeczywistym z AllMySat

Download on the App Store